Regional Weather Roundup
Issued by NWS

Home | Current Version | Previous Version | Text Only | Print | Product List | Glossary On
Versions: 1 2 3 4 5 6 7 8 9 10 11 12 13 14 15 16 17 18 19 20 21 22 23 24 25 26 27 28 29 30 31 32 33 34 35 36 37 38 39 40 41 42 43 44 45 46 47 48 49 50
000
ASUS44 KOUN 251710
RWROK

WEATHER ROUNDUP FOR OKLAHOMA
NATIONAL WEATHER SERVICE NORMAN OK
1100 AM CST THU DEC 25 2014

NOTE: "FAIR" INDICATES FEW OR NO CLOUDS BELOW 12,000 FEET WITH NO
      SIGNIFICANT WEATHER AND/OR OBSTRUCTIONS TO VISIBILITY.

OKZ001>007-009>012-014-015-017-251800-
NORTHWEST OKLAHOMA AND THE PANHANDLE

CITY           SKY/WX    TMP DP  RH WIND       PRES   REMARKS
GAGE           MOSUNNY   49  21  33 S25G37    29.62S
ENID/WOODRING  MOSUNNY   48  30  49 S23G37    29.74R
$$

OKZ016-021>023-033>039-044-045-251800-
SOUTHWEST OKLAHOMA

CITY           SKY/WX    TMP DP  RH WIND       PRES   REMARKS
LAWTON/REGL    PTSUNNY   50  26  39 S23G29    29.87S
LAWTON/FT SILL PTSUNNY   50  27  40 SW20G29   29.86R
FREDERICK      CLOUDY    51  27  39 S23G30    29.83R
CLINTON        PTSUNNY   45  25  45 S35G44    29.73S
HOBART         PTSUNNY   48  27  44 S31G43    29.79S
ALTUS AFB      PTSUNNY   48  27  44 S18G29    29.82S
$$

OKZ018>020-024>031-251800-
CENTRAL OKLAHOMA

CITY           SKY/WX    TMP DP  RH WIND       PRES   REMARKS
OKLAHOMA CITY  CLOUDY    50  25  37 S24G30    29.83R
OKC/WILEY POST CLOUDY    49  25  39 S24G33    29.81S
OKC/TINKER AFB CLOUDY    49  26  41 S21G28    29.84R
STILLWATER     PTSUNNY   51  25  36 S20G32    29.80S
GUTHRIE        CLOUDY    49  24  37 S22G31    29.80R
$$

OKZ008-013-054>072-251800-
NORTHEAST OKLAHOMA

CITY           SKY/WX    TMP DP  RH WIND       PRES   REMARKS
TULSA          PTSUNNY   49  27  42 S26G38    29.87S
TULSA/JONES    SUNNY     51  27  39 S18G26    29.88F
PONCA CITY     PTSUNNY   48  26  42 S15G24    29.77R
BARTLESVILLE   SUNNY     50  28  42 S18G28    29.85F
MUSKOGEE       SUNNY     50  29  44 S22G31    29.97F
$$

OKZ032-040>043-046>053-073>077-251800-
SOUTH CENTRAL/SOUTHEAST OKLAHOMA

CITY           SKY/WX    TMP DP  RH WIND       PRES   REMARKS
ARDMORE/DWNTWN MOSUNNY   50  27  40 SW12G23   29.97S
MCALESTER      PTSUNNY   51  27  39 S18G30    29.98F
$$



USA.gov is the U.S. government's official web portal to all federal, state and local government web resources and services.